QPF
0.01 0.01 0.01 0.01 0.00 0.01 0.00 0.01 0.01 0.01 0.00 0.01 0.01 0.00 0.00 0.00 0.00 0.00 0.00 0.01 0.01 0.02 0.03 0.04 0.04 0.04 0.04 0.04 0.03 0.03 0.04 0.05 0.05 0.04 0.03 0.04 0.04 0.04 0.03 0.03 0.03 0.02 0.02 0.01
0.01 0.01 0.00 0.00 0.00 0.01 0.01 0.01 0.01 0.01 0.00 0.01 0.01 0.00 0.00 0.00 0.00 0.00 0.00 0.01 0.02 0.02 0.03 0.04 0.04 0.04 0.03 0.02 0.01 0.01 0.02 0.03 0.06 0.04 0.04 0.03 0.03 0.03 0.03 0.04 0.05 0.04 0.03 0.02
0.01 0.01 0.00 0.00 0.01 0.01 0.01 0.01 0.01 0.01 0.01 0.01 0.01 0.01 0.00 0.00 0.00 0.00 0.00 0.00 0.00 0.00 0.00 0.01 0.01 0.01 0.01 0.01 0.01 0.01 0.01 0.01 0.02 0.02 0.03 0.03 0.03 0.03 0.03 0.03 0.04 0.04 0.03 0.02
0.01 0.00 0.01 0.02 0.01 0.01 0.01 0.01 0.01 0.01 0.02 0.02 0.01 0.01 0.00 0.00 0.00 0.00 0.00 0.00 0.00 0.00 0.00 0.00 0.00 0.00 0.00 0.00 0.00 0.00 0.00 0.00 0.01 0.01 0.02 0.04 0.04 0.03 0.03 0.04 0.03 0.03 0.02 0.01
0.02 0.01 0.01 0.02 0.02 0.02 0.02 0.02 0.02 0.02 0.03 0.02 0.01 0.01 0.01 0.00 0.00 0.00 0.00 0.00 0.00 0.01 0.00 0.00 0.00 0.00 0.00 0.00 0.00 0.00 0.01 0.00 0.01 0.01 0.02 0.03 0.03 0.03 0.03 0.04 0.04 0.02 0.01 0.01
0.01 0.01 0.02 0.03 0.03 0.03 0.02 0.02 0.02 0.02 0.02 0.02 0.01 0.01 0.01 0.00 0.00 0.00 0.00 0.00 0.00 0.00 0.00 0.00 0.00 0.00 0.00 0.00 0.00 0.01 0.01 0.01 0.00 0.01 0.01 0.01 0.02 0.03 0.04 0.04 0.05 0.05 0.04 0.04
0.01 0.01 0.01 0.01 0.02 0.02 0.02 0.03 0.05 0.03 0.02 0.01 0.00 0.01 0.01 0.00 0.00 0.00 0.00 0.00 0.00 0.00 0.00 0.00 0.01 0.01 0.00 0.00 0.00 0.01 0.01 0.01 0.01 0.01 0.01 0.01 0.02 0.02 0.03 0.04 0.07 0.06 0.06 0.06
0.01 0.01 0.01 0.01 0.02 0.02 0.01 0.02 0.03 0.04 0.02 0.01 0.00 0.00 0.00 0.00 0.00 0.00 0.00 0.00 0.00 0.00 0.00 0.00 0.00 0.00 0.00 0.01 0.01 0.01 0.01 0.01 0.01 0.01 0.01 0.01 0.02 0.01 0.01 0.02 0.04 0.06 0.05 0.05
0.01 0.01 0.01 0.01 0.02 0.02 0.01 0.01 0.01 0.02 0.02 0.01 0.00 0.00 0.00 0.00 0.00 0.00 0.00 0.00 0.00 0.00 0.00 0.01 0.00 0.00 0.00 0.00 0.01 0.01 0.02 0.02 0.01 0.01 0.01 0.01 0.01 0.01 0.01 0.01 0.02 0.04 0.03 0.03
0.01 0.02 0.01 0.01 0.02 0.02 0.01 0.01 0.01 0.02 0.02 0.02 0.01 0.00 0.00 0.00 0.00 0.00 0.00 0.00 0.00 0.00 0.00 0.01 0.01 0.01 0.00 0.00 0.01 0.02 0.02 0.01 0.01 0.01 0.01 0.01 0.01 0.01 0.01 0.01 0.02 0.02 0.03 0.03
0.02 0.01 0.01 0.01 0.01 0.02 0.01 0.01 0.01 0.02 0.02 0.02 0.01 0.00 0.00 0.00 0.00 0.00 0.00 0.00 0.00 0.00 0.00 0.00 0.01 0.00 0.00 0.00 0.01 0.01 0.00 0.00 0.00 0.01 0.01 0.01 0.01 0.01 0.01 0.01 0.02 0.03 0.04 0.05
0.01 0.01 0.01 0.01 0.00 0.00 0.01 0.01 0.01 0.01 0.02 0.02 0.01 0.00 0.00 0.00 0.00 0.00 0.00 0.00 0.00 0.00 0.00 0.00 0.00 0.00 0.00 0.00 0.00 0.00 0.00 0.00 0.00 0.00 0.00 0.01 0.02 0.02 0.01 0.01 0.02 0.03 0.03 0.03
0.01 0.01 0.01 0.01 0.01 0.01 0.00 0.01 0.00 0.00 0.01 0.02 0.01 0.00 0.00 0.00 0.00 0.00 0.00 0.00 0.00 0.00 0.00 0.00 0.00 0.00 0.00 0.00 0.00 0.00 0.00 0.00 0.00 0.00 0.00 0.01 0.01 0.02 0.01 0.01 0.01 0.02 0.02 0.02
0.01 0.01 0.01 0.01 0.01 0.01 0.01 0.01 0.01 0.01 0.01 0.01 0.01 0.00 0.00 0.00 0.00 0.00 0.00 0.00 0.00 0.00 0.00 0.00 0.00 0.00 0.00 0.00 0.00 0.00 0.00 0.00 0.00 0.01 0.01 0.01 0.01 0.01 0.01 0.01 0.01 0.01 0.01 0.02
0.01 0.01 0.00 0.00 0.01 0.00 0.00 0.00 0.00 0.00 0.00 0.02 0.02 0.01 0.00 0.00 0.00 0.00 0.00 0.00 0.00 0.00 0.00 0.00 0.00 0.00 0.00 0.00 0.00 0.00 0.00 0.01 0.01 0.01 0.00 0.00 0.00 0.00 0.00 0.01 0.01 0.00 0.01 0.01
0.01 0.01 0.00 0.00 0.00 0.01 0.00 0.00 0.00 0.00 0.00 0.01 0.02 0.02 0.01 0.01 0.00 0.00 0.00 0.00 0.00 0.00 0.00 0.00 0.00 0.00 0.00 0.00 0.00 0.00 0.00 0.00 0.00 0.00 0.00 0.00 0.00 0.00 0.00 0.00 0.01 0.01 0.00 0.01
0.01 0.00 0.00 0.00 0.00 0.01 0.01 0.00 0.00 0.00 0.01 0.01 0.02 0.02 0.01 0.01 0.01 0.00 0.00 0.00 0.00 0.00 0.00 0.00 0.00 0.00 0.00 0.00 0.00 0.00 0.00 0.00 0.00 0.00 0.01 0.00 0.00 0.00 0.00 0.01 0.01 0.01 0.01 0.01
0.01 0.01 0.01 0.00 0.01 0.01 0.01 0.00 0.00 0.00 0.01 0.01 0.01 0.01 0.01 0.01 0.01 0.00 0.00 0.00 0.00 0.00 0.00 0.00 0.00 0.00 0.00 0.00 0.00 0.00 0.00 0.00 0.00 0.01 0.01 0.01 0.01 0.01 0.01 0.01 0.01 0.01 0.01 0.00
0.01 0.00 0.00 0.01 0.01 0.01 0.01 0.01 0.00 0.01 0.01 0.01 0.02 0.02 0.01 0.01 0.01 0.01 0.01 0.01 0.00 0.00 0.00 0.00 0.00 0.00 0.00 0.00 0.00 0.00 0.00 0.00 0.00 0.00 0.00 0.01 0.01 0.01 0.01 0.01 0.01 0.01 0.00 0.00
0.01 0.01 0.01 0.01 0.01 0.01 0.01 0.01 0.01 0.01 0.01 0.01 0.02 0.02 0.03 0.03 0.02 0.02 0.02 0.02 0.01 0.01 0.00 0.00 0.00 0.00 0.00 0.00 0.00 0.00 0.00 0.00 0.00 0.00 0.01 0.00 0.01 0.01 0.01 0.01 0.01 0.01 0.01 0.00
0.01 0.01 0.01 0.01 0.01 0.01 0.01 0.01 0.01 0.01 0.01 0.01 0.02 0.02 0.03 0.03 0.03 0.02 0.02 0.02 0.01 0.01 0.01 0.00 0.00 0.00 0.00 0.00 0.00 0.00 0.00 0.00 0.00 0.00 0.01 0.01 0.01 0.01 0.01 0.01 0.01 0.01 0.01 0.01
0.01 0.01 0.01 0.01 0.01 0.01 0.01 0.01 0.00 0.00 0.00 0.00 0.01 0.02 0.02 0.02 0.02 0.02 0.02 0.02 0.01 0.01 0.01 0.01 0.01 0.01 0.00 0.00 0.00 0.00 0.00 0.00 0.01 0.01 0.00 0.00 0.00 0.01 0.01 0.01 0.01 0.01 0.01 0.01
0.01 0.01 0.01 0.01 0.02 0.02 0.01 0.01 0.01 0.00 0.00 0.01 0.01 0.02 0.02 0.02 0.02 0.02 0.02 0.02 0.02 0.02 0.02 0.01 0.01 0.00 0.00 0.00 0.00 0.00 0.00 0.00 0.01 0.01 0.00 0.00 0.00 0.01 0.00 0.01 0.01 0.01 0.01 0.01
0.02 0.02 0.02 0.02 0.03 0.02 0.02 0.01 0.01 0.01 0.01 0.01 0.02 0.03 0.03 0.03 0.03 0.02 0.02 0.02 0.01 0.01 0.01 0.01 0.00 0.00 0.00 0.00 0.00 0.01 0.01 0.01 0.01 0.00 0.00 0.00 0.00 0.00 0.00 0.01 0.01 0.01 0.01 0.01
0.02 0.02 0.02 0.02 0.02 0.02 0.02 0.01 0.01 0.01 0.01 0.01 0.02 0.02 0.02 0.03 0.03 0.02 0.02 0.01 0.01 0.00 0.00 0.00 0.00 0.00 0.00 0.00 0.01 0.01 0.01 0.01 0.01 0.01 0.01 0.01 0.01 0.01 0.01 0.01 0.01 0.01 0.01 0.01
0.02 0.02 0.02 0.03 0.02 0.02 0.02 0.02 0.01 0.01 0.01 0.01 0.01 0.01 0.01 0.02 0.03 0.03 0.02 0.01 0.01 0.00 0.00 0.00 0.00 0.00 0.00 0.01 0.00 0.00 0.01 0.01 0.01 0.01 0.02 0.01 0.01 0.01 0.01 0.01 0.01 0.02 0.02 0.02
MSLP
1015.19 1015.59 1015.90 1016.13 1016.26 1016.32 1016.30 1016.20 1016.03 1015.78 1015.45 1015.05 1014.59 1014.09 1013.59 1013.13 1012.74 1012.47 1012.33 1012.31 1012.41 1012.60 1012.83 1013.07 1013.30 1013.51 1013.70 1013.89 1014.09 1014.33 1014.61 1014.93 1015.29 1015.65 1015.99 1016.29 1016.54 1016.74 1016.90 1017.05 1017.21 1017.41 1017.65 1017.92
1015.41 1015.69 1015.87 1015.97 1016.00 1015.98 1015.93 1015.84 1015.71 1015.51 1015.22 1014.84 1014.37 1013.81 1013.22 1012.65 1012.15 1011.77 1011.55 1011.50 1011.59 1011.81 1012.10 1012.42 1012.74 1013.03 1013.29 1013.54 1013.80 1014.09 1014.43 1014.81 1015.22 1015.65 1016.05 1016.40 1016.67 1016.88 1017.03 1017.14 1017.26 1017.40 1017.59 1017.84
1015.50 1015.64 1015.69 1015.68 1015.63 1015.57 1015.52 1015.48 1015.41 1015.28 1015.05 1014.68 1014.18 1013.55 1012.85 1012.14 1011.50 1010.99 1010.67 1010.56 1010.64 1010.88 1011.24 1011.65 1012.06 1012.45 1012.80 1013.12 1013.44 1013.79 1014.18 1014.61 1015.09 1015.57 1016.02 1016.41 1016.72 1016.94 1017.08 1017.17 1017.25 1017.34 1017.49 1017.70
1015.42 1015.45 1015.39 1015.29 1015.20 1015.14 1015.14 1015.17 1015.19 1015.14 1014.96 1014.60 1014.05 1013.34 1012.51 1011.64 1010.83 1010.18 1009.74 1009.56 1009.62 1009.88 1010.30 1010.79 1011.30 1011.78 1012.22 1012.62 1013.00 1013.39 1013.82 1014.30 1014.81 1015.34 1015.84 1016.28 1016.62 1016.87 1017.01 1017.10 1017.15 1017.22 1017.33 1017.51
1015.21 1015.13 1014.99 1014.85 1014.76 1014.75 1014.82 1014.95 1015.08 1015.11 1014.98 1014.63 1014.03 1013.21 1012.24 1011.20 1010.22 1009.41 1008.85 1008.59 1008.61 1008.89 1009.35 1009.92 1010.51 1011.08 1011.59 1012.05 1012.47 1012.90 1013.36 1013.86 1014.40 1014.96 1015.49 1015.97 1016.36 1016.63 1016.80 1016.90 1016.95 1017.01 1017.11 1017.27
1014.88 1014.73 1014.55 1014.41 1014.36 1014.43 1014.61 1014.85 1015.08 1015.20 1015.11 1014.76 1014.10 1013.18 1012.06 1010.86 1009.72 1008.76 1008.08 1007.73 1007.71 1007.98 1008.47 1009.09 1009.74 1010.37 1010.94 1011.43 1011.89 1012.33 1012.79 1013.30 1013.85 1014.42 1014.99 1015.50 1015.93 1016.25 1016.45 1016.58 1016.65 1016.72 1016.82 1016.98
1014.49 1014.31 1014.13 1014.03 1014.05 1014.21 1014.49 1014.85 1015.17 1015.36 1015.30 1014.93 1014.22 1013.20 1011.96 1010.62 1009.34 1008.25 1007.45 1007.02 1006.95 1007.21 1007.70 1008.34 1009.03 1009.69 1010.28 1010.80 1011.26 1011.70 1012.16 1012.66 1013.21 1013.80 1014.38 1014.92 1015.39 1015.75 1016.00 1016.17 1016.27 1016.36 1016.47 1016.64
1014.11 1013.93 1013.78 1013.73 1013.82 1014.07 1014.45 1014.89 1015.28 1015.51 1015.46 1015.07 1014.31 1013.21 1011.88 1010.43 1009.05 1007.85 1006.98 1006.47 1006.35 1006.57 1007.05 1007.69 1008.38 1009.04 1009.64 1010.16 1010.62 1011.05 1011.50 1012.00 1012.54 1013.13 1013.73 1014.30 1014.80 1015.20 1015.50 1015.70 1015.84 1015.96 1016.08 1016.26
1013.78 1013.61 1013.51 1013.51 1013.67 1013.99 1014.42 1014.91 1015.32 1015.55 1015.49 1015.06 1014.25 1013.11 1011.71 1010.21 1008.77 1007.53 1006.60 1006.04 1005.88 1006.05 1006.50 1007.10 1007.77 1008.41 1009.00 1009.50 1009.96 1010.39 1010.84 1011.33 1011.88 1012.48 1013.10 1013.69 1014.22 1014.66 1015.00 1015.24 1015.41 1015.54 1015.68 1015.86
1013.53 1013.40 1013.33 1013.37 1013.57 1013.90 1014.34 1014.81 1015.19 1015.38 1015.27 1014.80 1013.96 1012.79 1011.39 1009.89 1008.44 1007.19 1006.25 1005.67 1005.47 1005.60 1005.99 1006.54 1007.16 1007.76 1008.32 1008.82 1009.27 1009.71 1010.17 1010.68 1011.25 1011.87 1012.51 1013.12 1013.68 1014.15 1014.52 1014.79 1014.99 1015.15 1015.30 1015.48
1013.37 1013.26 1013.21 1013.27 1013.45 1013.76 1014.14 1014.53 1014.82 1014.92 1014.73 1014.21 1013.36 1012.20 1010.83 1009.39 1008.00 1006.80 1005.88 1005.31 1005.08 1005.16 1005.48 1005.96 1006.51 1007.07 1007.59 1008.08 1008.53 1008.99 1009.48 1010.02 1010.63 1011.28 1011.95 1012.59 1013.18 1013.68 1014.08 1014.38 1014.61 1014.79 1014.95 1015.14
1013.25 1013.15 1013.11 1013.15 1013.28 1013.50 1013.78 1014.04 1014.20 1014.18 1013.90 1013.34 1012.48 1011.36 1010.08 1008.73 1007.45 1006.34 1005.49 1004.93 1004.69 1004.72 1004.97 1005.36 1005.83 1006.32 1006.80 1007.26 1007.72 1008.21 1008.74 1009.33 1009.98 1010.67 1011.37 1012.05 1012.67 1013.20 1013.64 1013.98 1014.24 1014.45 1014.65 1014.85
1013.13 1013.04 1012.97 1012.97 1013.02 1013.13 1013.26 1013.36 1013.37 1013.22 1012.86 1012.25 1011.41 1010.38 1009.21 1008.01 1006.86 1005.88 1005.10 1004.59 1004.33 1004.30 1004.46 1004.75 1005.12 1005.52 1005.95 1006.38 1006.85 1007.35 1007.92 1008.56 1009.25 1009.98 1010.72 1011.44 1012.09 1012.66 1013.14 1013.53 1013.85 1014.11 1014.36 1014.60
1012.96 1012.86 1012.77 1012.70 1012.67 1012.65 1012.64 1012.58 1012.44 1012.17 1011.73 1011.11 1010.32 1009.38 1008.36 1007.32 1006.34 1005.49 1004.81 1004.33 1004.06 1003.96 1004.02 1004.19 1004.44 1004.74 1005.08 1005.47 1005.91 1006.42 1007.02 1007.68 1008.41 1009.18 1009.95 1010.69 1011.39 1012.00 1012.53 1012.99 1013.38 1013.73 1014.06 1014.37
1012.71 1012.59 1012.47 1012.35 1012.23 1012.11 1011.97 1011.78 1011.52 1011.16 1010.68 1010.08 1009.35 1008.54 1007.68 1006.81 1006.00 1005.28 1004.69 1004.24 1003.93 1003.76 1003.70 1003.73 1003.84 1004.01 1004.25 1004.56 1004.96 1005.45 1006.04 1006.72 1007.46 1008.24 1009.03 1009.80 1010.53 1011.19 1011.79 1012.33 1012.81 1013.26 1013.69 1014.10
1012.37 1012.23 1012.09 1011.93 1011.76 1011.56 1011.33 1011.06 1010.72 1010.32 1009.84 1009.27 1008.64 1007.96 1007.26 1006.56 1005.90 1005.30 1004.78 1004.34 1003.99 1003.73 1003.53 1003.41 1003.36 1003.38 1003.50 1003.71 1004.04 1004.48 1005.04 1005.69 1006.42 1007.19 1007.99 1008.77 1009.52 1010.23 1010.89 1011.52 1012.11 1012.68 1013.22 1013.75
1011.98 1011.82 1011.66 1011.49 1011.28 1011.05 1010.78 1010.47 1010.11 1009.71 1009.26 1008.77 1008.25 1007.70 1007.15 1006.60 1006.06 1005.56 1005.08 1004.63 1004.22 1003.85 1003.52 1003.23 1003.02 1002.89 1002.86 1002.96 1003.19 1003.56 1004.06 1004.66 1005.36 1006.10 1006.88 1007.66 1008.42 1009.17 1009.89 1010.59 1011.28 1011.96 1012.62 1013.26
1011.59 1011.41 1011.23 1011.05 1010.84 1010.61 1010.34 1010.04 1009.71 1009.35 1008.96 1008.56 1008.14 1007.71 1007.28 1006.85 1006.41 1005.96 1005.50 1005.03 1004.55 1004.07 1003.60 1003.16 1002.80 1002.52 1002.36 1002.33 1002.46 1002.74 1003.16 1003.71 1004.34 1005.05 1005.79 1006.55 1007.31 1008.07 1008.84 1009.60 1010.36 1011.12 1011.87 1012.60
1011.26 1011.04 1010.85 1010.66 1010.46 1010.24 1010.00 1009.74 1009.45 1009.15 1008.84 1008.53 1008.20 1007.88 1007.54 1007.19 1006.81 1006.39 1005.93 1005.41 1004.86 1004.28 1003.69 1003.13 1002.63 1002.23 1001.95 1001.82 1001.85 1002.04 1002.39 1002.86 1003.44 1004.09 1004.79 1005.52 1006.26 1007.03 1007.80 1008.59 1009.38 1010.19 1010.99 1011.77
1011.04 1010.77 1010.53 1010.32 1010.12 1009.92 1009.71 1009.49 1009.26 1009.02 1008.78 1008.54 1008.29 1008.04 1007.77 1007.46 1007.11 1006.70 1006.22 1005.67 1005.05 1004.40 1003.72 1003.06 1002.47 1001.97 1001.60 1001.39 1001.34 1001.47 1001.75 1002.16 1002.68 1003.27 1003.93 1004.62 1005.33 1006.07 1006.83 1007.60 1008.40 1009.20 1010.00 1010.78
1010.93 1010.58 1010.29 1010.03 1009.81 1009.61 1009.42 1009.23 1009.04 1008.85 1008.66 1008.47 1008.27 1008.06 1007.82 1007.54 1007.20 1006.78 1006.29 1005.71 1005.05 1004.35 1003.62 1002.91 1002.26 1001.70 1001.28 1001.01 1000.91 1000.98 1001.21 1001.57 1002.04 1002.58 1003.19 1003.84 1004.51 1005.21 1005.93 1006.67 1007.42 1008.19 1008.95 1009.69
1010.92 1010.47 1010.09 1009.77 1009.50 1009.28 1009.08 1008.90 1008.73 1008.57 1008.41 1008.24 1008.07 1007.88 1007.65 1007.37 1007.03 1006.61 1006.11 1005.52 1004.85 1004.13 1003.39 1002.66 1001.98 1001.40 1000.95 1000.65 1000.51 1000.54 1000.73 1001.04 1001.46 1001.97 1002.53 1003.14 1003.77 1004.42 1005.09 1005.77 1006.46 1007.16 1007.85 1008.53
1010.94 1010.38 1009.90 1009.50 1009.17 1008.90 1008.68 1008.48 1008.31 1008.15 1007.99 1007.84 1007.67 1007.48 1007.26 1006.99 1006.65 1006.24 1005.74 1005.16 1004.51 1003.80 1003.06 1002.34 1001.67 1001.08 1000.61 1000.29 1000.12 1000.11 1000.25 1000.52 1000.89 1001.36 1001.88 1002.44 1003.03 1003.64 1004.25 1004.87 1005.50 1006.12 1006.74 1007.35
1010.90 1010.25 1009.68 1009.20 1008.81 1008.49 1008.22 1008.00 1007.81 1007.64 1007.48 1007.32 1007.15 1006.96 1006.74 1006.47 1006.15 1005.75 1005.28 1004.73 1004.11 1003.43 1002.73 1002.02 1001.36 1000.77 1000.28 999.92 999.71 999.64 999.73 999.94 1000.26 1000.67 1001.15 1001.67 1002.22 1002.78 1003.35 1003.93 1004.50 1005.06 1005.63 1006.18
1010.72 1010.01 1009.39 1008.86 1008.42 1008.06 1007.77 1007.53 1007.32 1007.13 1006.95 1006.78 1006.61 1006.42 1006.21 1005.95 1005.65 1005.29 1004.86 1004.35 1003.78 1003.14 1002.47 1001.78 1001.12 1000.51 999.98 999.57 999.29 999.15 999.16 999.29 999.54 999.89 1000.31 1000.78 1001.29 1001.82 1002.36 1002.90 1003.44 1003.97 1004.50 1005.02
1010.35 1009.64 1009.01 1008.48 1008.04 1007.67 1007.37 1007.12 1006.91 1006.71 1006.53 1006.35 1006.17 1005.99 1005.79 1005.56 1005.29 1004.97 1004.58 1004.13 1003.60 1003.00 1002.35 1001.67 1001.00 1000.35 999.77 999.28 998.91 998.67 998.57 998.60 998.76 999.02 999.37 999.79 1000.26 1000.75 1001.27 1001.79 1002.32 1002.84 1003.36 1003.88
Thickness
5740 5733 5726 5727 5729 5728 5725 5720 5717 5719 5724 5719 5717 5719 5723 5727 5725 5724 5725 5725 5725 5724 5725 5724 5722 5721 5721 5720 5719 5718 5715 5714 5712 5709 5707 5705 5704 5703 5702 5701 5699 5697 5697 5695
5729 5724 5730 5732 5728 5725 5721 5716 5716 5718 5722 5719 5717 5719 5727 5727 5725 5726 5726 5726 5725 5724 5723 5721 5720 5719 5718 5716 5715 5715 5714 5712 5710 5707 5706 5704 5703 5701 5700 5697 5696 5695 5694 5692
5722 5727 5731 5726 5721 5719 5719 5717 5716 5713 5716 5719 5716 5716 5723 5728 5728 5727 5727 5727 5727 5724 5722 5721 5719 5717 5716 5714 5713 5712 5711 5710 5707 5705 5703 5701 5699 5697 5696 5694 5693 5692 5691 5689
5723 5728 5725 5721 5720 5720 5714 5722 5719 5714 5711 5710 5713 5707 5723 5727 5725 5725 5725 5725 5725 5723 5722 5720 5718 5716 5714 5713 5712 5711 5710 5709 5706 5703 5700 5698 5696 5694 5694 5693 5691 5690 5688 5686
5718 5721 5719 5716 5720 5721 5718 5721 5718 5714 5711 5709 5712 5707 5721 5727 5723 5726 5727 5726 5725 5724 5722 5720 5717 5715 5714 5712 5710 5708 5707 5706 5703 5701 5698 5696 5695 5694 5693 5691 5689 5688 5686 5684
5720 5724 5722 5721 5722 5722 5718 5716 5713 5713 5710 5699 5710 5707 5714 5727 5727 5729 5729 5728 5726 5724 5723 5720 5718 5715 5712 5711 5707 5705 5704 5701 5699 5697 5696 5694 5692 5690 5688 5686 5685 5684 5683 5682
5711 5717 5721 5722 5714 5714 5714 5708 5698 5696 5695 5701 5711 5707 5717 5731 5733 5732 5730 5729 5728 5725 5722 5719 5715 5712 5709 5707 5705 5703 5700 5698 5696 5695 5693 5692 5689 5687 5685 5684 5682 5681 5680 5679
5702 5704 5715 5719 5716 5712 5713 5711 5697 5689 5693 5704 5708 5707 5723 5731 5732 5733 5732 5730 5727 5724 5721 5718 5714 5711 5708 5705 5703 5701 5698 5696 5693 5691 5690 5689 5687 5684 5683 5681 5680 5679 5678 5677
5706 5705 5716 5717 5719 5718 5710 5710 5715 5706 5703 5698 5708 5716 5724 5729 5727 5727 5727 5726 5724 5723 5719 5716 5713 5710 5707 5703 5701 5699 5696 5693 5691 5689 5687 5685 5683 5681 5679 5678 5677 5675 5674 5673
5714 5703 5710 5713 5715 5712 5715 5714 5707 5700 5690 5690 5700 5707 5714 5721 5722 5724 5724 5723 5722 5720 5717 5714 5711 5708 5705 5702 5700 5697 5694 5691 5689 5686 5684 5681 5679 5677 5675 5673 5671 5670 5670 5668
5715 5706 5704 5707 5705 5707 5706 5705 5705 5704 5701 5692 5691 5705 5724 5723 5724 5723 5723 5722 5720 5717 5714 5712 5708 5705 5702 5700 5696 5693 5690 5687 5685 5682 5680 5677 5675 5672 5671 5668 5667 5665 5664 5663
5712 5709 5702 5707 5713 5714 5712 5709 5706 5695 5695 5696 5693 5704 5725 5723 5723 5722 5720 5720 5717 5714 5711 5708 5705 5701 5698 5695 5693 5689 5687 5684 5680 5678 5675 5673 5671 5668 5666 5664 5662 5661 5660 5658
5707 5703 5694 5695 5698 5703 5703 5704 5704 5704 5700 5695 5690 5702 5721 5721 5719 5718 5715 5714 5712 5709 5706 5704 5700 5697 5694 5691 5688 5685 5682 5679 5676 5673 5670 5668 5666 5664 5662 5660 5658 5657 5655 5654
5707 5704 5698 5691 5698 5702 5699 5698 5698 5697 5693 5693 5697 5705 5714 5713 5712 5712 5710 5709 5707 5704 5701 5698 5695 5693 5690 5688 5685 5681 5678 5675 5671 5668 5665 5663 5661 5659 5657 5655 5653 5652 5650 5649
5702 5698 5700 5700 5700 5699 5697 5696 5695 5694 5698 5694 5701 5702 5708 5710 5708 5708 5706 5703 5700 5697 5695 5693 5690 5689 5686 5683 5680 5676 5673 5670 5667 5663 5660 5658 5657 5654 5652 5650 5647 5646 5644 5643
5697 5693 5693 5691 5693 5693 5691 5695 5694 5693 5695 5695 5696 5698 5707 5707 5706 5703 5700 5697 5693 5691 5690 5688 5686 5684 5681 5679 5676 5672 5669 5666 5662 5658 5655 5653 5650 5648 5645 5644 5642 5640 5638 5637
5688 5688 5684 5685 5688 5685 5684 5694 5693 5692 5694 5692 5689 5695 5698 5695 5694 5695 5694 5691 5689 5687 5685 5683 5682 5679 5677 5675 5672 5667 5665 5661 5657 5653 5650 5647 5644 5641 5639 5637 5635 5633 5632 5631
5682 5681 5681 5680 5678 5668 5688 5696 5692 5689 5689 5691 5690 5690 5689 5688 5689 5689 5688 5686 5684 5682 5680 5678 5677 5674 5672 5670 5666 5663 5659 5655 5651 5647 5644 5641 5638 5635 5633 5631 5629 5627 5627 5625
5678 5675 5674 5673 5671 5677 5683 5685 5683 5681 5681 5685 5684 5683 5682 5682 5682 5683 5681 5679 5677 5676 5674 5672 5671 5669 5666 5663 5660 5656 5652 5648 5644 5641 5638 5635 5632 5629 5627 5624 5623 5621 5620 5619
5667 5671 5669 5666 5661 5663 5676 5682 5682 5677 5674 5680 5679 5676 5674 5673 5671 5674 5673 5670 5669 5667 5666 5664 5663 5660 5657 5655 5652 5648 5645 5641 5637 5634 5631 5629 5625 5622 5620 5618 5616 5614 5613 5611
5659 5659 5660 5661 5661 5669 5673 5674 5674 5663 5668 5673 5673 5671 5668 5666 5667 5665 5664 5661 5660 5658 5657 5655 5653 5650 5648 5646 5643 5639 5637 5634 5630 5627 5624 5621 5619 5616 5614 5611 5609 5607 5605 5604
5658 5655 5655 5655 5652 5656 5664 5664 5662 5663 5668 5666 5665 5664 5661 5660 5658 5656 5654 5652 5650 5648 5647 5645 5643 5641 5638 5637 5634 5631 5627 5626 5623 5619 5616 5613 5611 5609 5606 5603 5601 5600 5598 5597
5651 5653 5654 5654 5653 5654 5656 5656 5657 5658 5657 5657 5656 5655 5653 5651 5649 5647 5645 5643 5641 5639 5638 5636 5634 5631 5629 5626 5624 5621 5619 5616 5613 5611 5608 5606 5604 5601 5599 5596 5594 5592 5591 5590
5643 5641 5643 5644 5646 5646 5646 5647 5647 5648 5647 5647 5647 5645 5644 5642 5641 5639 5637 5635 5633 5631 5629 5627 5624 5621 5619 5616 5614 5612 5609 5607 5605 5602 5600 5599 5596 5594 5591 5588 5587 5585 5584 5583
5634 5632 5634 5636 5638 5637 5637 5638 5638 5638 5638 5637 5637 5636 5635 5634 5632 5630 5628 5626 5624 5622 5620 5617 5615 5612 5609 5607 5604 5602 5599 5598 5596 5594 5591 5589 5587 5584 5582 5580 5578 5577 5576 5574
5627 5626 5626 5628 5631 5630 5630 5631 5630 5628 5628 5628 5627 5626 5625 5623 5622 5621 5619 5617 5615 5612 5610 5607 5605 5602 5601 5598 5595 5592 5590 5588 5587 5585 5583 5580 5577 5575 5572 5571 5568 5565 5564 5562